Regional Weather Roundup
Issued by NWS

Home | Current Version | Previous Version | Text Only | Print | Product List | Glossary On
Versions: 1 2 3 4 5 6 7 8 9 10 11 12 13 14 15 16 17 18 19 20 21 22 23 24 25 26 27 28 29 30 31 32 33 34 35 36 37 38 39 40 41 42 43 44 45 46 47 48 49 50
000
ASUS46 KSTO 040909
RWRCA

NORTHERN AND CENTRAL CA REGIONAL WEATHER ROUNDUP
NATIONAL WEATHER SERVICE SACRAMENTO CA
200 AM PDT WED MAY 04 2016

NOTE: FAIR INDICATES FEW OR NO CLOUDS BELOW 12,000 FEET WITH NO
SIGNIFICANT WEATHER AND/OR OBSTRUCTIONS TO VISIBILITY.

CAZ001-003-041000-
NORTHWEST AREA

CITY           SKY/WX    TMP DP  RH WIND       PRES   REMARKS
CRESCENT CITY  CLOUDY    52  52 100 CALM      29.93F FOG
ARCATA         NOT AVBL
SHELTER COVE   NOT AVBL
UKIAH          CLOUDY    59  54  83 CALM      29.89F
$$

CAZ006-505>513-041000-
BAY AREA

CITY           SKY/WX    TMP DP  RH WIND       PRES   REMARKS
SANTA ROSA     CLOUDY    54  51  90 SE7       29.89F
SAN RAFAEL     N/A       56  MM  MM MISG
NAPA           CLOUDY    54  51  90 SW5       29.90F
CONCORD        CLOUDY    61  50  67 CALM      29.89F
OAKLAND CITY   N/A       57  MM  MM MISG
OAKLAND        CLOUDY    56  50  80 NW8       29.92F
SAN FRAN CITY  N/A       54  MM  91 MISG
SAN FRAN ARPT  CLOUDY    52  52 100 W16       29.92F
LIVERMORE      CLOUDY    58  50  75 NW9       29.89F
HAYWARD        CLOUDY    56  50  80 NW7       29.92F
REDWOOD CITY   N/A       MM  MM  MM MISG
MOFFETT ARPT   CLOUDY    58  52  80 N10       29.92F
SAN JOSE ARPT  CLOUDY    58  53  84 NW12      29.91F
$$
CAZ034-037-514>518-041000-
CENTRAL COAST

CITY           SKY/WX    TMP DP  RH WIND       PRES   REMARKS
WATSONVILLE    CLOUDY    54  52  93 E5        29.94S
SALINAS        CLOUDY    54  50  86 W9        29.94S
MONTEREY       CLOUDY    53  51  93 SW7       29.95S
PT PIEDRAS BLS NOT AVBL
SAN LUIS OBISP CLOUDY    55  52  89 CALM      29.94F
SANTA MARIA    MOCLDY    52  50  93 W7        29.94S FOG
$$
CAZ015-016-041000-
NORTHERN SACRAMENTO VALLEY

CITY           SKY/WX    TMP DP  RH WIND       PRES   REMARKS
REDDING        CLOUDY    62  52  69 CALM      29.86F
RED BLUFF      CLOUDY    62  53  72 N7        29.87F
OROVILLE       MOCLDY    65  51  60 E5        29.86F
$$
CAZ016>018-041000-
SOUTHERN SACRAMENTO VALLEY

CITY           SKY/WX    TMP DP  RH WIND       PRES   REMARKS
AUBURN         PTCLDY    63  46  55 E7        29.91F
BEALE AFB      MOCLDY    61  53  73 N5        29.83F
LINCOLN        FAIR      55  50  82 CALM      29.84S
MARYSVILLE     MOCLDY    63  56  78 NE5       29.85F
SAC INTL ARPT  CLOUDY    64  54  69 SE8       29.85R
MATHER AIRPORT NOT AVBL
DOWNTOWN SAC   N/A       63  MM  MM MISG
SAC EXEC ARPT  CLOUDY    62  51  67 S3        29.86S
VACAVILLE      CLOUDY    65  53  65 W5        29.85F
TRAVIS AFB     CLOUDY    58  51  76 SW18      29.83F
$$
CAZ019>021-041000-
SAN JOAQUIN VALLEY

CITY           SKY/WX    TMP DP  RH WIND       PRES   REMARKS
STOCKTON       CLOUDY    62  55  77 NE3       29.86F
MODESTO        CLOUDY    67  52  58 N8        29.84F
MERCED         CLOUDY    65  54  67 N7        29.84F
LEMOORE        PTCLDY    64  48  56 NW8       29.84F
FRESNO         MOCLDY    67  55  65 NW9       29.85F
HANFORD        MOCLDY    65  54  67 NE5       29.85S
PORTERVILLE    PTCLDY    61  48  62 SE6       29.87F
BAKERSFIELD    PTCLDY    70  41  34 N3        29.87F
$$
CAZ011-012-071-041000-
NORTHERN MOUNTAINS

CITY           SKY/WX    TMP DP  RH WIND       PRES   REMARKS
YREKA          MOCLDY    49  46  90 CALM      30.00F
MOUNT SHASTA   MOCLDY    46  41  82 CALM      30.00F
ALTURAS        CLOUDY    50  45  83 W5        30.04F
$$
CAZ011-012-071-041000-
SIERRA NEVADA MTNS

CITY           SKY/WX    TMP DP  RH WIND       PRES   REMARKS
BLUE CANYON    PTCLDY    53  27  36 NE3       30.06F
TRUCKEE        PTCLDY    36  36 100 CALM      30.11S FOG
TAHOE VLY ARPT PTCLDY    38  35  89 CALM      30.10F
MAMMOTH LAKES  FAIR      39  31  73 N3        30.15F
$$




USA.gov is the U.S. government's official web portal to all federal, state and local government web resources and services.